Preview of NWS' New Version of Forecast
This preview is not operational and should not be used for support decisions.

Regional Weather Roundup (RWR)

Issued by National Weather Service (NWS)

                            
000
ASUS43 KMKX 200621
RWRWI 

WISCONSIN REGIONAL WEATHER ROUNDUP
NATIONAL WEATHER SERVICE MILWAUKEE/SULLIVAN WI
100 AM CDT TUE AUG 20 2019

NOTE: "FAIR" INDICATES FEW OR NO CLOUDS BELOW 12,000 FEET WITH NO
SIGNIFICANT WEATHER AND/OR OBSTRUCTIONS TO VISIBILITY.

WIZ001-002-006>008-014>016-023>028-200700-
NORTHWEST WISCONSIN
  
CITY           SKY/WX    TMP DP  RH WIND       PRES   REMARKS
SUPERIOR ARPT  FAIR      62  58  86 CALM      29.96F                  
6HR MIN TEMP:  61; 6HR MAX TEMP:  78;                                

ASHLAND        FAIR      64  56  75 SW9       29.99S                  
6HR MIN TEMP:  62; 6HR MAX TEMP:  74;                                

HAYWARD        FAIR      55  52  89 CALM      30.03S                  
6HR MIN TEMP:  55; 6HR MAX TEMP:  74;                                

SIREN          FAIR      63  57  82 S3        30.00S                  
6HR MIN TEMP:  62; 6HR MAX TEMP:  75;                                

CUMBERLAND     FAIR      55  54  94 CALM      30.02F                  
RICE LAKE      FAIR      57  41  55 CALM      30.03F HAZE             
6HR MIN TEMP:  57; 6HR MAX TEMP:  74;                                

CHETEK         FAIR      56  56 100 CALM      30.03S                  
6HR MIN TEMP:  56; 6HR MAX TEMP:  73;                                

LADYSMITH      FAIR      56  56  99 CALM      30.05S                  
6HR MIN TEMP:  57; 6HR MAX TEMP:  73;                                

EAU CLAIRE     FAIR      57  54  89 NE3       30.02S                  
6HR MIN TEMP:  56; 6HR MAX TEMP:  75;                                

MENOMONIE      FAIR      55  54  95 CALM      30.02F                  
6HR MIN TEMP:  55; 6HR MAX TEMP:  71;                                

NEW RICHMOND   FAIR      61  58  91 CALM      30.01F                  
6HR MIN TEMP:  60; 6HR MAX TEMP:  75;                                

OSCEOLA        FAIR      62  61  99 E5        30.03F                  
6HR MIN TEMP:  61; 6HR MAX TEMP:  76;                                

$$
 
WIZ003>005-009-010-017-018-200700-
NORTH CENTRAL WISCONSIN
  
CITY           SKY/WX    TMP DP  RH WIND       PRES   REMARKS
MANITOWISH WTR FAIR      52  52 100 SW3       30.04S                  
6HR MIN TEMP:  53; 6HR MAX TEMP:  70;                                

ARBOR VITAE    FAIR      57  54  90 CALM      30.04F                  
6HR MIN TEMP:  57; 6HR MAX TEMP:  72;                                

WOODRUFF       FAIR      57  54  90 CALM      30.04F                  
6HR MIN TEMP:  57; 6HR MAX TEMP:  72;                                

RHINELANDER    FAIR      57  52  83 W5        30.05S                  
6HR MIN TEMP:  54; 6HR MAX TEMP:  71;                                

EAGLE RIVER    FAIR      54  54 100 CALM      30.04S                  
6HR MIN TEMP:  51; 6HR MAX TEMP:  68;                                

LAND O LAKES   FAIR      51  50  98 CALM      30.05S                  
6HR MIN TEMP:  51; 6HR MAX TEMP:  71;                                

PHILLIPS       FAIR      53  53 100 CALM      30.04S                  
TOMAHAWK       FAIR      49  48  97 CALM      30.06R                  
6HR MIN TEMP:  49; 6HR MAX TEMP:  69;                                

MEDFORD        FAIR      52  51  99 CALM      30.05S FOG              
6HR MIN TEMP:  51; 6HR MAX TEMP:  69;                                

MERRILL        FAIR      50  50 100 CALM      30.06S                  
6HR MIN TEMP:  51; 6HR MAX TEMP:  73;                                

$$
 
WIZ029-030-035-036-043>047-200700-
CENTRAL WISCONSIN
  
CITY           SKY/WX    TMP DP  RH WIND       PRES   REMARKS
WAUSAU         FAIR      56  55  97 CALM      30.04R                  
6HR MIN TEMP:  56; 6HR MAX TEMP:  73;                                

MOSINEE        FAIR      57  57 100 CALM      30.06S FOG              
MARSHFIELD     FAIR      58  55  90 CALM      30.04S                  
6HR MIN TEMP:  57; 6HR MAX TEMP:  74;                                

STEVENS POINT  FAIR      51  51 100 CALM      30.06S                  
6HR MIN TEMP:  51; 6HR MAX TEMP:  74;                                

WAUPACA        FAIR      57  56  97 CALM      30.05S                  
6HR MIN TEMP:  56; 6HR MAX TEMP:  78;                                

WAUTOMA        FAIR      56  55  97 CALM      30.05S                  
6HR MIN TEMP:  56; 6HR MAX TEMP:  76;                                

WISC RAPIDS    FAIR      58  55  90 CALM      30.05S                  
6HR MIN TEMP:  56; 6HR MAX TEMP:  76;                                

CAMP DOUGLAS   FAIR      52  52 100 CALM      30.04F                  
6HR MIN TEMP:  51; 6HR MAX TEMP:  76;                                

$$
 
WIZ011>013-019>022-031-037>040-048>050-200700-
NORTHEAST WISCONSIN
  
CITY           SKY/WX    TMP DP  RH WIND       PRES   REMARKS
ANTIGO         FAIR      51  50  99 CALM      30.07R                  
6HR MIN TEMP:  51; 6HR MAX TEMP:  69;                                

SHAWANO        FAIR      59  57  94 CALM      30.04S                  
6HR MIN TEMP:  58; 6HR MAX TEMP:  77;                                

OCONTO         FAIR      54  52  94 CALM      30.03R                  
6HR MIN TEMP:  53; 6HR MAX TEMP:  74;                                

STURGEON BAY   FAIR      62  57  83 SW6       30.03S                  
6HR MIN TEMP:  61; 6HR MAX TEMP:  71;                                

GREEN BAY      FAIR      60  58  92 CALM      30.04R                  
6HR MIN TEMP:  59; 6HR MAX TEMP:  76;                                

MANITOWOC      FAIR      59  57  93 CALM      30.04S                  
6HR MIN TEMP:  58; 6HR MAX TEMP:  72;                                

APPLETON       FAIR      63  52  67 CALM      30.03S                  
CLINTONVILLE   FAIR      55  51  88 CALM      30.04S                  
6HR MIN TEMP:  55; 6HR MAX TEMP:  76;                                

OSHKOSH        FAIR      62  57  83 S3        30.04R                  
6HR MIN TEMP:  59; 6HR MAX TEMP:  76;                                

$$
 
WIZ032>034-041-042-053>061-200700-
SOUTHWEST WISCONSIN
  
CITY           SKY/WX    TMP DP  RH WIND       PRES   REMARKS
LA CROSSE      FAIR      64  60  87 SE7       30.03R                  
6HR MIN TEMP:  64; 6HR MAX TEMP:  80;                                

SPARTA         FAIR      50  50  99 CALM      30.05S                  
6HR MIN TEMP:  50; 6HR MAX TEMP:  75;                                

VIROQUA        FAIR      61  61  99 E5        30.05S                  
6HR MIN TEMP:  60; 6HR MAX TEMP:  75;                                

BOSCOBEL       FAIR      59  57  93 CALM      30.04R FOG              
6HR MIN TEMP:  58; 6HR MAX TEMP:  78;                                

PRAIRIE DU CHI FAIR      62  61  96 E5        30.03S FOG              
6HR MIN TEMP:  62; 6HR MAX TEMP:  78;                                

PLATTEVILLE    FAIR      63  63 100 NE3       30.04S                  
6HR MIN TEMP:  64; 6HR MAX TEMP:  78;                                

$$

WIZ056-057-062-063-064-067-068-200700-
SOUTH CENTRAL WISCONSIN
  
CITY           SKY/WX    TMP DP  RH WIND       PRES   REMARKS
REEDSBURG      FAIR      59  59 100 CALM      30.04F                  
6HR MIN TEMP:  59; 6HR MAX TEMP:  76;                                

BARABOO/DELLS  FAIR      59  57  94 CALM      30.05S                  
6HR MIN TEMP:  58; 6HR MAX TEMP:  75;                                

LONE ROCK      FOG       60  59  96 CALM      30.03F VSB 1/4          
6HR MIN TEMP:  60; 6HR MAX TEMP:  79;                                

MINERAL POINT    N/A     64  63  94 CALM      30.04F                  
MADISON        FAIR      62  60  93 CALM      30.03F                  
6HR MIN TEMP:  61; 6HR MAX TEMP:  77;                                

MIDDLETON      FAIR      61  27  27 CALM      30.05S                  
6HR MIN TEMP:  61; 6HR MAX TEMP:  78;                                

WATERTOWN      FAIR      61  61 100 CALM      30.04S                  
6HR MIN TEMP:  61; 6HR MAX TEMP:  78;                                

MONROE         FAIR      71  65  82 NE3       30.04F                  
6HR MIN TEMP:  69; 6HR MAX TEMP:  78;                                

JANESVILLE     FAIR      66  66 100 CALM      30.03R                  
$$
 
WIZ051-052-058>065-066-070>072-200700-
SOUTHEAST WISCONSIN
  
CITY           SKY/WX    TMP DP  RH WIND       PRES   REMARKS
MILWAUKEE      FAIR      71  67  87 CALM      30.02S                  
6HR MIN TEMP:  70; 6HR MAX TEMP:  76;                                

WAUKESHA       FAIR      63  61  94 CALM      30.04S                  
MILWAUKEE/TIMM FAIR      64  61  88 CALM      30.04S                  
RACINE         FAIR      70  67  90 CALM      30.04R                  
6HR MIN TEMP:  70; 6HR MAX TEMP:  76;                                

KENOSHA        MOCLDY    72  70  93 CALM      30.03R                  
6HR MIN TEMP:  70; 6HR MAX TEMP:  78;                                

FOND DU LAC    FAIR      61  57  87 CALM      30.05R                  
6HR MIN TEMP:  60; 6HR MAX TEMP:  78;                                

SHEBOYGAN      FAIR      58  57  97 CALM      30.04S                  
6HR MIN TEMP:  58; 6HR MAX TEMP:  74; 6HR PCP: TRACE;                

WEST BEND      FOG       61  61 100 CALM      30.05S VSB 1/4          
JUNEAU         FAIR      62  60  94 CALM      30.06S                  
6HR MIN TEMP:  61; 6HR MAX TEMP:  76;                                

$$

LSZ147-162-200700-
LAKE SUPERIOR
  
STATION/POSITION TIME  TEMP    WIND        PRES    WAVE
                       AIR SEA DIR/SP/G            HT/PER
                 (UTC) (F)     (DEG/KT/KT) (MB)    (FT/S)
W MID LAKE BUOY  0550   67 63  230/ 16/ 17 1013.0R   3/ 4
DEVILS ISLAND    0600   71     230/ 16/ 19 1013.9R
SAXON HARBOR     0540   69     200/  8/ 14 1014.6S
$$
 
LMZ867-665-643>646-200700-
LAKE MICHIGAN
  
STATION/POSITION TIME  TEMP    WIND        PRES    WAVE
                       AIR SEA DIR/SP/G            HT/PER
                 (UTC)